Location: Praha
(50.0830°N, 14.4670°E)
Time: 19:20:43
(UTC+02:00)

ISS - Pass Details

Date: 23 May 2021
Orbit: 417 x 422 km, 51.6° (Epoch: 16 June)

Event Time Altitude Azimuth Distance (km) Brightness Sun altitude
Rises 00:34:14 0° 287° (WNW) 2,370 0.4 -19.1°
Reaches altitude 10° 00:36:25 10° 280° (W) 1,504 -0.8 -19.2°
Enters shadow 00:38:20 27° 257° (WSW) 840 -2.3 -19.2°
